Location: Narrabri
(30.3170°S, 149.7830°E)
Time: 01:05:02
(UTC+11:00)

ISS - Visible Passes

Search period start: 22 October 2017 00:00
Search period end: 01 November 2017 00:00
Orbit: 401 x 408 km, 51.6° (Epoch: 22 October)

Date Brightness Start Highest point End Pass type
(mag) Time Alt. Az. Time Alt. Az. Time Alt. Az.
22 Oct -3.1 05:19:47 10° SW 05:23:04 56° SE 05:26:18 10° NE visible
22 Oct -2.6 20:19:24 10° N 20:21:42 25° NE 20:21:42 25° NE visible
23 Oct -1.6 04:27:46 10° SSW 04:30:39 26° SE 04:33:29 10° E visible
23 Oct -2.5 21:03:02 10° WNW 21:06:12 40° SW 21:07:01 33° S visible
24 Oct -0.4 03:39:12 13° ESE 03:39:12 13° ESE 03:40:03 10° ESE visible
24 Oct -3.5 05:12:00 13° WSW 05:14:44 43° NW 05:17:53 10° NNE visible
24 Oct -3.9 20:10:30 10° NW 20:13:49 86° NE 20:17:10 10° SE visible
25 Oct -2.0 04:24:12 25° NE 04:24:12 25° NE 04:25:43 10° NE visible
25 Oct -0.8 20:55:47 10° W 20:58:04 17° SW 21:00:21 10° S visible
26 Oct -1.8 20:02:30 10° WNW 20:05:31 31° SW 20:08:34 10° SSE visible
28 Oct -0.7 19:55:30 10° WSW 19:57:21 14° SW 19:59:14 10° S visible
